Showing default

RESURS P5, 62430

Orbit data source: Space-Track

RESURS P5, 62430 is a payload satellite owned by TsSKB-Progress (CIS) in SSO that was launched on Wed, 25 Dec 2024 UTC via a SOYUZ-2-1B launch vehicle from the Tyuratam Missile And Space Complex (TTMTR). Payload-class satellites include a variety of spacecraft equipped with specific instruments for various scientific and technological missions. These include communications satellites like Starlink; space stations such as the ISS; scientific satellites like the Hubble; Earth observation satellites from companies like Planet Labs, Umbra, and HawkEye 360; GPS; miniature CubeSats for education and research; and military/defense satellites.

Loading next visibility...
Identifier
62430, 2024-250A
Orbit
SSO
Country
Flag of CISCIS
Related business
Manufacturer
TSSKBP?
Mission
Operational Civil Imaging
Bus & Motor
RESURS P, Unknown motor
Mass
~6,000 kg wet, ~5,800 kg dry
Launch date (UTC)
2024-12-25 (1 year ago)
Launch vehicle
SOYUZ-2-1B
Launch site
Tyuratam Missile And Space Complex (TTMTR)
Object type
Payload
Rocket body
Debris
Shape & HBR
Cyl + 2 Pan, 6.5 m
Radar Cross Section
27.080 m², Large (>1 m²)

Expand to show TLE details & history
Last TLE update: 5 days ago

TLE from 5 days ago
0 RESURS P5
1 62430U 24250A   26115.78092997  .00003669  00000-0  11683-3 0  9990
2 62430  97.2780  42.0283 0001563 127.6726 232.4659 15.33192036 74527
Epoch: 2026-04-25T18:44Z
TLE epoch observation values (Epoch: 2026-04-25T18:44:32.349Z)
Latitude
0.00002°
Longitude
-92.90087°
Altitude
470.06 km
Speed
7.631 km/s
True Right ascension
02h 48m 06s
True Declination
0° 00' 00"
Sunlit
Object was in daylight at epoch
Visualization orbit readout
Latitude
Unknown
Longitude
Unknown
Altitude
Unknown
Speed
Unknown
Apparent Right ascension
Unknown
Apparent Declination
Unknown
Sunlit
N/A
Visualization observer readout
Local Sidereal Time
07:10:09
Azimuth
Unknown
Elevation
Unknown
Doppler factor
Unknown
Orbital elements
Apogee altitude
464.308 km
Perigee altitude
462.169 km
Semi-major axis
6,841.376 km
Eccentricity
0.00016
Inclination
97.278°
RAAN
42.0283°
Arg. of periapsis
127.6726°
True anomaly
232.4517°
Mean anomaly
232.4659°
Eccentric anomaly
232.4588°
Mean motion
3.83555 °/min
Orbital period
93.86 mins
BSTAR
0.00011683
Loading maneuver chart data...
Computing Atmospheric mass density...
Loading historical data...
Loading historical data...
Loading historical data...
Loading historical data...
Loading historical data...
Loading historical data...
Loading historical data...
Other satellites on launch #250 in the year 2024 (2024-12-25 UTC)

Documentation

Showing up to 5 results
|